Regional Weather Roundup
Issued by NWS

Home | Current Version | Previous Version | Graphics & Text | Print | Product List | Glossary On
Versions: 1 2 3 4 5 6 7 8 9 10 11 12 13 14 15 16 17 18 19 20 21 22 23 24 25 26 27 28 29 30 31 32 33 34 35 36 37 38 39 40 41 42 43 44 45 46 47 48 49 50
000
ASUS43 KLMK 202110
RWRKY
KENTUCKY REGIONAL WEATHER ROUNDUP
NATIONAL WEATHER SERVICE LOUISVILLE KY
500 PM EDT WED AUG 20 2014

NOTE "FAIR" INDICATES FEW OR NO CLOUDS BELOW 12,000 FEET
WITH NO SIGNIFICANT WEATHER AND/OR OBSTRUCTIONS TO VISIBILITY.

KYZ001>023-026-027-061>063-070>075-202200-
WESTERN AND SOUTH CENTRAL KENTUCKY

CITY           SKY/WX    TMP DP  RH WIND       PRES   REMARKS
PADUCAH        MOSUNNY   94  75  54 W7        29.94F HX 105
HENDERSON      MOSUNNY   84  73  70 N6        29.96R HX  91
OWENSBORO      PTSUNNY   84  71  65 NW12      29.98R
HOPKINSVILLE   DRIZZLE   91  73  55 W17G23    29.94F HX 100
BOWLING GREEN  TSTM      76  63  64 E10G29    30.00R VSB 1/2
GLASGOW        MOSUNNY   88  74  62 CALM      29.96F HX  96
$$

KYZ024-025-028>034-038-045-046-053-202200-
NORTH CENTRAL KENTUCKY

CITY           SKY/WX    TMP DP  RH WIND       PRES   REMARKS
LOUISVILLE/SDF CLOUDY    78  72  81 E3        29.96R
LOUISVILLE/LOU CLOUDY    77  68  73 N3        29.97S
FORT KNOX      CLOUDY    74  70  85 VRB1      29.97F
$$

KYZ035>037-039>044-047>052-055>060-089>105-202200-
NORTHEAST KENTUCKY

CITY           SKY/WX    TMP DP  RH WIND       PRES   REMARKS
LEXINGTON      CLOUDY    84  71  65 NW5       29.98S HAZE
COVINGTON      TSTM      71  64  78 W5        30.01R
FRANKFORT      TSTM      70  68  93 VRB6      30.02R FOG
$$

KYZ054-064>069-076>088-106>120-202200-
SOUTHEAST KENTUCKY

CITY           SKY/WX    TMP DP  RH WIND       PRES   REMARKS
JACKSON        MOSUNNY   86  71  60 VRB6      30.00S HX  91
LONDON         PTSUNNY   88  71  57 W13       29.99S HX  94
SOMERSET       PTSUNNY   84  70  61 CALM      29.99R
MIDDLESBORO    TSTM      79  68  69 E14G25    30.03R
MONTICELLO     MOCLDY    87  77  72 W6        30.00F HX  98
$$



USA.gov is the U.S. government's official web portal to all federal, state and local government web resources and services.